Index of /20260428/WXO-DD/model_gdps/15km/00/138
Name Last modified Size Description
Parent Directory -
20260428T00Z_MSC_GDPS_AbsoluteVorticity_IsbL-0200_LatLon0.15_PT138H.grib2 2026-04-28 04:29 1.5M
20260428T00Z_MSC_GDPS_AbsoluteVorticity_IsbL-0250_LatLon0.15_PT138H.grib2 2026-04-28 04:29 1.3M
20260428T00Z_MSC_GDPS_AbsoluteVorticity_IsbL-0500_LatLon0.15_PT138H.grib2 2026-04-28 04:29 1.5M
20260428T00Z_MSC_GDPS_AbsoluteVorticity_IsbL-0700_LatLon0.15_PT138H.grib2 2026-04-28 04:29 1.3M
20260428T00Z_MSC_GDPS_AbsoluteVorticity_IsbL-0850_LatLon0.15_PT138H.grib2 2026-04-28 04:29 1.6M
20260428T00Z_MSC_GDPS_AirTemp-Max_AGL-2m_LatLon0.15_PT138H.grib2 2026-04-28 04:29 747K
20260428T00Z_MSC_GDPS_AirTemp-Min_AGL-2m_LatLon0.15_PT138H.grib2 2026-04-28 04:29 793K
20260428T00Z_MSC_GDPS_AirTemp_AGL-120m_LatLon0.15_PT138H.grib2 2026-04-28 04:29 794K
20260428T00Z_MSC_GDPS_AirTemp_AGL-2m_LatLon0.15_PT138H.grib2 2026-04-28 04:29 1.0M
20260428T00Z_MSC_GDPS_AirTemp_AGL-40m_LatLon0.15_PT138H.grib2 2026-04-28 04:29 816K
20260428T00Z_MSC_GDPS_AirTemp_AGL-80m_LatLon0.15_PT138H.grib2 2026-04-28 04:29 804K
20260428T00Z_MSC_GDPS_AirTemp_IsbL-0001_LatLon0.15_PT138H.grib2 2026-04-28 04:29 653K
20260428T00Z_MSC_GDPS_AirTemp_IsbL-0005_LatLon0.15_PT138H.grib2 2026-04-28 04:29 684K
20260428T00Z_MSC_GDPS_AirTemp_IsbL-0010_LatLon0.15_PT138H.grib2 2026-04-28 04:29 696K
20260428T00Z_MSC_GDPS_AirTemp_IsbL-0020_LatLon0.15_PT138H.grib2 2026-04-28 04:29 789K
20260428T00Z_MSC_GDPS_AirTemp_IsbL-0030_LatLon0.15_PT138H.grib2 2026-04-28 04:29 835K
20260428T00Z_MSC_GDPS_AirTemp_IsbL-0050_LatLon0.15_PT138H.grib2 2026-04-28 04:29 808K
20260428T00Z_MSC_GDPS_AirTemp_IsbL-0100_LatLon0.15_PT138H.grib2 2026-04-28 04:29 969K
20260428T00Z_MSC_GDPS_AirTemp_IsbL-0150_LatLon0.15_PT138H.grib2 2026-04-28 04:29 1.0M
20260428T00Z_MSC_GDPS_AirTemp_IsbL-0175_LatLon0.15_PT138H.grib2 2026-04-28 04:29 961K
20260428T00Z_MSC_GDPS_AirTemp_IsbL-0200_LatLon0.15_PT138H.grib2 2026-04-28 04:29 1.0M
20260428T00Z_MSC_GDPS_AirTemp_IsbL-0225_LatLon0.15_PT138H.grib2 2026-04-28 04:29 1.0M
20260428T00Z_MSC_GDPS_AirTemp_IsbL-0250_LatLon0.15_PT138H.grib2 2026-04-28 04:29 1.0M
20260428T00Z_MSC_GDPS_AirTemp_IsbL-0275_LatLon0.15_PT138H.grib2 2026-04-28 04:29 1.0M
20260428T00Z_MSC_GDPS_AirTemp_IsbL-0300_LatLon0.15_PT138H.grib2 2026-04-28 04:29 950K
20260428T00Z_MSC_GDPS_AirTemp_IsbL-0350_LatLon0.15_PT138H.grib2 2026-04-28 04:29 934K
20260428T00Z_MSC_GDPS_AirTemp_IsbL-0400_LatLon0.15_PT138H.grib2 2026-04-28 04:29 947K
20260428T00Z_MSC_GDPS_AirTemp_IsbL-0450_LatLon0.15_PT138H.grib2 2026-04-28 04:29 968K
20260428T00Z_MSC_GDPS_AirTemp_IsbL-0500_LatLon0.15_PT138H.grib2 2026-04-28 04:29 1.0M
20260428T00Z_MSC_GDPS_AirTemp_IsbL-0550_LatLon0.15_PT138H.grib2 2026-04-28 04:29 809K
20260428T00Z_MSC_GDPS_AirTemp_IsbL-0600_LatLon0.15_PT138H.grib2 2026-04-28 04:29 895K
20260428T00Z_MSC_GDPS_AirTemp_IsbL-0650_LatLon0.15_PT138H.grib2 2026-04-28 04:29 921K
20260428T00Z_MSC_GDPS_AirTemp_IsbL-0700_LatLon0.15_PT138H.grib2 2026-04-28 04:29 956K
20260428T00Z_MSC_GDPS_AirTemp_IsbL-0750_LatLon0.15_PT138H.grib2 2026-04-28 04:29 1.0M
20260428T00Z_MSC_GDPS_AirTemp_IsbL-0800_LatLon0.15_PT138H.grib2 2026-04-28 04:29 1.1M
20260428T00Z_MSC_GDPS_AirTemp_IsbL-0850_LatLon0.15_PT138H.grib2 2026-04-28 04:29 1.1M
20260428T00Z_MSC_GDPS_AirTemp_IsbL-0875_LatLon0.15_PT138H.grib2 2026-04-28 04:29 1.2M
20260428T00Z_MSC_GDPS_AirTemp_IsbL-0900_LatLon0.15_PT138H.grib2 2026-04-28 04:29 1.2M
20260428T00Z_MSC_GDPS_AirTemp_IsbL-0925_LatLon0.15_PT138H.grib2 2026-04-28 04:29 1.1M
20260428T00Z_MSC_GDPS_AirTemp_IsbL-0950_LatLon0.15_PT138H.grib2 2026-04-28 04:29 1.1M
20260428T00Z_MSC_GDPS_AirTemp_IsbL-0970_LatLon0.15_PT138H.grib2 2026-04-28 04:29 1.1M
20260428T00Z_MSC_GDPS_AirTemp_IsbL-0985_LatLon0.15_PT138H.grib2 2026-04-28 04:29 1.1M
20260428T00Z_MSC_GDPS_AirTemp_IsbL-1000_LatLon0.15_PT138H.grib2 2026-04-28 04:29 1.1M
20260428T00Z_MSC_GDPS_AirTemp_IsbL-1015_LatLon0.15_PT138H.grib2 2026-04-28 04:29 1.1M
20260428T00Z_MSC_GDPS_Albedo_Sfc_LatLon0.15_PT138H.grib2 2026-04-28 04:29 245K
20260428T00Z_MSC_GDPS_CAPE_Sfc_LatLon0.15_PT138H.grib2 2026-04-28 04:29 3.7M
20260428T00Z_MSC_GDPS_CIN_Sfc_LatLon0.15_PT138H.grib2 2026-04-28 04:29 2.9M
20260428T00Z_MSC_GDPS_CloudWater_EAtm_LatLon0.15_PT138H.grib2 2026-04-28 04:29 537K
20260428T00Z_MSC_GDPS_ConvectivePrecip-Accum_Sfc_LatLon0.15_PT138H.grib2 2026-04-28 04:29 3.7M
20260428T00Z_MSC_GDPS_DewPointDepression_AGL-2m_LatLon0.15_PT138H.grib2 2026-04-28 04:29 765K
20260428T00Z_MSC_GDPS_DewPointDepression_IsbL-0010_LatLon0.15_PT138H.grib2 2026-04-28 04:29 59K
20260428T00Z_MSC_GDPS_DewPointDepression_IsbL-0020_LatLon0.15_PT138H.grib2 2026-04-28 04:29 66K
20260428T00Z_MSC_GDPS_DewPointDepression_IsbL-0030_LatLon0.15_PT138H.grib2 2026-04-28 04:29 83K
20260428T00Z_MSC_GDPS_DewPointDepression_IsbL-0050_LatLon0.15_PT138H.grib2 2026-04-28 04:29 374K
20260428T00Z_MSC_GDPS_DewPointDepression_IsbL-0100_LatLon0.15_PT138H.grib2 2026-04-28 04:29 400K
20260428T00Z_MSC_GDPS_DewPointDepression_IsbL-0150_LatLon0.15_PT138H.grib2 2026-04-28 04:29 460K
20260428T00Z_MSC_GDPS_DewPointDepression_IsbL-0175_LatLon0.15_PT138H.grib2 2026-04-28 04:29 580K
20260428T00Z_MSC_GDPS_DewPointDepression_IsbL-0200_LatLon0.15_PT138H.grib2 2026-04-28 04:29 689K
20260428T00Z_MSC_GDPS_DewPointDepression_IsbL-0225_LatLon0.15_PT138H.grib2 2026-04-28 04:29 784K
20260428T00Z_MSC_GDPS_DewPointDepression_IsbL-0250_LatLon0.15_PT138H.grib2 2026-04-28 04:29 862K
20260428T00Z_MSC_GDPS_DewPointDepression_IsbL-0275_LatLon0.15_PT138H.grib2 2026-04-28 04:29 873K
20260428T00Z_MSC_GDPS_DewPointDepression_IsbL-0300_LatLon0.15_PT138H.grib2 2026-04-28 04:29 912K
20260428T00Z_MSC_GDPS_DewPointDepression_IsbL-0350_LatLon0.15_PT138H.grib2 2026-04-28 04:29 947K
20260428T00Z_MSC_GDPS_DewPointDepression_IsbL-0400_LatLon0.15_PT138H.grib2 2026-04-28 04:29 1.0M
20260428T00Z_MSC_GDPS_DewPointDepression_IsbL-0450_LatLon0.15_PT138H.grib2 2026-04-28 04:29 1.0M
20260428T00Z_MSC_GDPS_DewPointDepression_IsbL-0500_LatLon0.15_PT138H.grib2 2026-04-28 04:29 1.0M
20260428T00Z_MSC_GDPS_DewPointDepression_IsbL-0550_LatLon0.15_PT138H.grib2 2026-04-28 04:29 1.0M
20260428T00Z_MSC_GDPS_DewPointDepression_IsbL-0600_LatLon0.15_PT138H.grib2 2026-04-28 04:29 1.1M
20260428T00Z_MSC_GDPS_DewPointDepression_IsbL-0650_LatLon0.15_PT138H.grib2 2026-04-28 04:29 1.1M
20260428T00Z_MSC_GDPS_DewPointDepression_IsbL-0700_LatLon0.15_PT138H.grib2 2026-04-28 04:29 1.1M
20260428T00Z_MSC_GDPS_DewPointDepression_IsbL-0750_LatLon0.15_PT138H.grib2 2026-04-28 04:29 1.1M
20260428T00Z_MSC_GDPS_DewPointDepression_IsbL-0800_LatLon0.15_PT138H.grib2 2026-04-28 04:29 1.2M
20260428T00Z_MSC_GDPS_DewPointDepression_IsbL-0850_LatLon0.15_PT138H.grib2 2026-04-28 04:29 1.2M
20260428T00Z_MSC_GDPS_DewPointDepression_IsbL-0875_LatLon0.15_PT138H.grib2 2026-04-28 04:29 1.1M
20260428T00Z_MSC_GDPS_DewPointDepression_IsbL-0900_LatLon0.15_PT138H.grib2 2026-04-28 04:29 1.1M
20260428T00Z_MSC_GDPS_DewPointDepression_IsbL-0925_LatLon0.15_PT138H.grib2 2026-04-28 04:29 1.0M
20260428T00Z_MSC_GDPS_DewPointDepression_IsbL-0950_LatLon0.15_PT138H.grib2 2026-04-28 04:29 1.0M
20260428T00Z_MSC_GDPS_DewPointDepression_IsbL-0970_LatLon0.15_PT138H.grib2 2026-04-28 04:29 1.0M
20260428T00Z_MSC_GDPS_DewPointDepression_IsbL-0985_LatLon0.15_PT138H.grib2 2026-04-28 04:29 1.0M
20260428T00Z_MSC_GDPS_DewPointDepression_IsbL-1000_LatLon0.15_PT138H.grib2 2026-04-28 04:29 1.0M
20260428T00Z_MSC_GDPS_DewPointDepression_IsbL-1015_LatLon0.15_PT138H.grib2 2026-04-28 04:29 924K
20260428T00Z_MSC_GDPS_DewPoint_AGL-2m_LatLon0.15_PT138H.grib2 2026-04-28 04:29 612K
20260428T00Z_MSC_GDPS_DownwardLongwaveRadiationFlux-Accum_Sfc_LatLon0.15_PT138H.grib2 2026-04-28 04:29 832K
20260428T00Z_MSC_GDPS_DownwardShortwaveRadiationFlux-Accum_NTAtm_LatLon0.15_PT138H.grib2 2026-04-28 04:29 189K
20260428T00Z_MSC_GDPS_DownwardShortwaveRadiationFlux-Accum_Sfc_LatLon0.15_PT138H.grib2 2026-04-28 04:29 1.0M
20260428T00Z_MSC_GDPS_FreezingRain-Accum12h_Sfc_LatLon0.15_PT138H.grib2 2026-04-28 04:29 115K
20260428T00Z_MSC_GDPS_FreezingRain-Accum1h_Sfc_LatLon0.15_PT138H.grib2 2026-04-28 04:29 39K
20260428T00Z_MSC_GDPS_FreezingRain-Accum24h_Sfc_LatLon0.15_PT138H.grib2 2026-04-28 04:29 160K
20260428T00Z_MSC_GDPS_FreezingRain-Accum3h_Sfc_LatLon0.15_PT138H.grib2 2026-04-28 04:29 57K
20260428T00Z_MSC_GDPS_FreezingRain-Accum6h_Sfc_LatLon0.15_PT138H.grib2 2026-04-28 04:29 93K
20260428T00Z_MSC_GDPS_FreezingRain-Accum_Sfc_LatLon0.15_PT138H.grib2 2026-04-28 04:29 449K
20260428T00Z_MSC_GDPS_GeopotentialHeight_IsbL-0001_LatLon0.15_PT138H.grib2 2026-04-28 04:29 422K
20260428T00Z_MSC_GDPS_GeopotentialHeight_IsbL-0005_LatLon0.15_PT138H.grib2 2026-04-28 04:29 494K
20260428T00Z_MSC_GDPS_GeopotentialHeight_IsbL-0010_LatLon0.15_PT138H.grib2 2026-04-28 04:29 487K
20260428T00Z_MSC_GDPS_GeopotentialHeight_IsbL-0020_LatLon0.15_PT138H.grib2 2026-04-28 04:29 414K
20260428T00Z_MSC_GDPS_GeopotentialHeight_IsbL-0030_LatLon0.15_PT138H.grib2 2026-04-28 04:29 572K
20260428T00Z_MSC_GDPS_GeopotentialHeight_IsbL-0050_LatLon0.15_PT138H.grib2 2026-04-28 04:29 569K
20260428T00Z_MSC_GDPS_GeopotentialHeight_IsbL-0100_LatLon0.15_PT138H.grib2 2026-04-28 04:29 606K
20260428T00Z_MSC_GDPS_GeopotentialHeight_IsbL-0150_LatLon0.15_PT138H.grib2 2026-04-28 04:29 627K
20260428T00Z_MSC_GDPS_GeopotentialHeight_IsbL-0175_LatLon0.15_PT138H.grib2 2026-04-28 04:29 630K
20260428T00Z_MSC_GDPS_GeopotentialHeight_IsbL-0200_LatLon0.15_PT138H.grib2 2026-04-28 04:29 636K
20260428T00Z_MSC_GDPS_GeopotentialHeight_IsbL-0225_LatLon0.15_PT138H.grib2 2026-04-28 04:29 640K
20260428T00Z_MSC_GDPS_GeopotentialHeight_IsbL-0250_LatLon0.15_PT138H.grib2 2026-04-28 04:29 639K
20260428T00Z_MSC_GDPS_GeopotentialHeight_IsbL-0275_LatLon0.15_PT138H.grib2 2026-04-28 04:29 641K
20260428T00Z_MSC_GDPS_GeopotentialHeight_IsbL-0300_LatLon0.15_PT138H.grib2 2026-04-28 04:29 633K
20260428T00Z_MSC_GDPS_GeopotentialHeight_IsbL-0350_LatLon0.15_PT138H.grib2 2026-04-28 04:29 629K
20260428T00Z_MSC_GDPS_GeopotentialHeight_IsbL-0400_LatLon0.15_PT138H.grib2 2026-04-28 04:29 619K
20260428T00Z_MSC_GDPS_GeopotentialHeight_IsbL-0450_LatLon0.15_PT138H.grib2 2026-04-28 04:29 610K
20260428T00Z_MSC_GDPS_GeopotentialHeight_IsbL-0500_LatLon0.15_PT138H.grib2 2026-04-28 04:29 535K
20260428T00Z_MSC_GDPS_GeopotentialHeight_IsbL-0550_LatLon0.15_PT138H.grib2 2026-04-28 04:29 526K
20260428T00Z_MSC_GDPS_GeopotentialHeight_IsbL-0600_LatLon0.15_PT138H.grib2 2026-04-28 04:29 524K
20260428T00Z_MSC_GDPS_GeopotentialHeight_IsbL-0650_LatLon0.15_PT138H.grib2 2026-04-28 04:29 693K
20260428T00Z_MSC_GDPS_GeopotentialHeight_IsbL-0700_LatLon0.15_PT138H.grib2 2026-04-28 04:29 694K
20260428T00Z_MSC_GDPS_GeopotentialHeight_IsbL-0750_LatLon0.15_PT138H.grib2 2026-04-28 04:29 695K
20260428T00Z_MSC_GDPS_GeopotentialHeight_IsbL-0800_LatLon0.15_PT138H.grib2 2026-04-28 04:29 710K
20260428T00Z_MSC_GDPS_GeopotentialHeight_IsbL-0850_LatLon0.15_PT138H.grib2 2026-04-28 04:29 721K
20260428T00Z_MSC_GDPS_GeopotentialHeight_IsbL-0875_LatLon0.15_PT138H.grib2 2026-04-28 04:29 721K
20260428T00Z_MSC_GDPS_GeopotentialHeight_IsbL-0900_LatLon0.15_PT138H.grib2 2026-04-28 04:29 731K
20260428T00Z_MSC_GDPS_GeopotentialHeight_IsbL-0925_LatLon0.15_PT138H.grib2 2026-04-28 04:29 736K
20260428T00Z_MSC_GDPS_GeopotentialHeight_IsbL-0950_LatLon0.15_PT138H.grib2 2026-04-28 04:29 746K
20260428T00Z_MSC_GDPS_GeopotentialHeight_IsbL-0970_LatLon0.15_PT138H.grib2 2026-04-28 04:29 757K
20260428T00Z_MSC_GDPS_GeopotentialHeight_IsbL-0985_LatLon0.15_PT138H.grib2 2026-04-28 04:29 772K
20260428T00Z_MSC_GDPS_GeopotentialHeight_IsbL-1000_LatLon0.15_PT138H.grib2 2026-04-28 04:29 793K
20260428T00Z_MSC_GDPS_GeopotentialHeight_IsbL-1015_LatLon0.15_PT138H.grib2 2026-04-28 04:29 815K
20260428T00Z_MSC_GDPS_IcePellets-Accum12h_Sfc_LatLon0.15_PT138H.grib2 2026-04-28 04:29 21K
20260428T00Z_MSC_GDPS_IcePellets-Accum1h_Sfc_LatLon0.15_PT138H.grib2 2026-04-28 04:29 11K
20260428T00Z_MSC_GDPS_IcePellets-Accum24h_Sfc_LatLon0.15_PT138H.grib2 2026-04-28 04:29 30K
20260428T00Z_MSC_GDPS_IcePellets-Accum3h_Sfc_LatLon0.15_PT138H.grib2 2026-04-28 04:29 14K
20260428T00Z_MSC_GDPS_IcePellets-Accum6h_Sfc_LatLon0.15_PT138H.grib2 2026-04-28 04:29 17K
20260428T00Z_MSC_GDPS_IcePellets-Accum_Sfc_LatLon0.15_PT138H.grib2 2026-04-28 04:29 129K
20260428T00Z_MSC_GDPS_KIndex_Sfc_LatLon0.15_PT138H.grib2 2026-04-28 04:29 6.5M
20260428T00Z_MSC_GDPS_LatentHeatNetFlux_Sfc_LatLon0.15_PT138H.grib2 2026-04-28 04:29 539K
20260428T00Z_MSC_GDPS_LiftedIndex-MU-VT_IsbL-0500_LatLon0.15_PT138H.grib2 2026-04-28 04:29 5.4M
20260428T00Z_MSC_GDPS_NetLongwaveRadiationFlux-Accum_Sfc_LatLon0.15_PT138H.grib2 2026-04-28 04:29 1.1M
20260428T00Z_MSC_GDPS_NetShortwaveRadiationFlux-Accum_Sfc_LatLon0.15_PT138H.grib2 2026-04-28 04:29 1.0M
20260428T00Z_MSC_GDPS_O3MixingRatio_LatLon0.15_PT138H.grib2 2026-04-28 04:54 1.9M
20260428T00Z_MSC_GDPS_O3_EAtm_LatLon0.15_PT138H.grib2 2026-04-28 04:54 2.4M
20260428T00Z_MSC_GDPS_PlanetaryBoundaryLayerHeight_Sfc_LatLon0.15_PT138H.grib2 2026-04-28 04:29 2.4M
20260428T00Z_MSC_GDPS_Precip-Accum12h_Sfc_LatLon0.15_PT138H.grib2 2026-04-28 04:29 4.0M
20260428T00Z_MSC_GDPS_Precip-Accum1h_Sfc_LatLon0.15_PT138H.grib2 2026-04-28 04:29 3.2M
20260428T00Z_MSC_GDPS_Precip-Accum24h_Sfc_LatLon0.15_PT138H.grib2 2026-04-28 04:29 4.5M
20260428T00Z_MSC_GDPS_Precip-Accum3h_Sfc_LatLon0.15_PT138H.grib2 2026-04-28 04:29 3.5M
20260428T00Z_MSC_GDPS_Precip-Accum6h_Sfc_LatLon0.15_PT138H.grib2 2026-04-28 04:29 3.8M
20260428T00Z_MSC_GDPS_Precip-Accum_Sfc_LatLon0.15_PT138H.grib2 2026-04-28 04:29 5.2M
20260428T00Z_MSC_GDPS_PrecipRate_Sfc_LatLon0.15_PT138H.grib2 2026-04-28 04:29 2.7M
20260428T00Z_MSC_GDPS_PrecipType-Instant_Sfc_LatLon0.15_PT138H.grib2 2026-04-28 04:29 1.6M
20260428T00Z_MSC_GDPS_Pressure_MSL_LatLon0.15_PT138H.grib2 2026-04-28 04:29 843K
20260428T00Z_MSC_GDPS_Pressure_Sfc_LatLon0.15_PT138H.grib2 2026-04-28 04:29 1.1M
20260428T00Z_MSC_GDPS_RadiativeTemp_Sfc_LatLon0.15_PT138H.grib2 2026-04-28 04:29 664K
20260428T00Z_MSC_GDPS_Rain-Accum12h_Sfc_LatLon0.15_PT138H.grib2 2026-04-28 04:29 2.7M
20260428T00Z_MSC_GDPS_Rain-Accum1h_Sfc_LatLon0.15_PT138H.grib2 2026-04-28 04:29 1.7M
20260428T00Z_MSC_GDPS_Rain-Accum24h_Sfc_LatLon0.15_PT138H.grib2 2026-04-28 04:29 3.2M
20260428T00Z_MSC_GDPS_Rain-Accum3h_Sfc_LatLon0.15_PT138H.grib2 2026-04-28 04:29 1.7M
20260428T00Z_MSC_GDPS_Rain-Accum6h_Sfc_LatLon0.15_PT138H.grib2 2026-04-28 04:29 2.4M
20260428T00Z_MSC_GDPS_Rain-Accum_Sfc_LatLon0.15_PT138H.grib2 2026-04-28 04:29 4.1M
20260428T00Z_MSC_GDPS_RelativeHumidity_AGL-2m_LatLon0.15_PT138H.grib2 2026-04-28 04:29 1.0M
20260428T00Z_MSC_GDPS_RelativeHumidity_IsbL-0010_LatLon0.15_PT138H.grib2 2026-04-28 04:29 189K
20260428T00Z_MSC_GDPS_RelativeHumidity_IsbL-0020_LatLon0.15_PT138H.grib2 2026-04-28 04:29 159K
20260428T00Z_MSC_GDPS_RelativeHumidity_IsbL-0030_LatLon0.15_PT138H.grib2 2026-04-28 04:29 264K
20260428T00Z_MSC_GDPS_RelativeHumidity_IsbL-0050_LatLon0.15_PT138H.grib2 2026-04-28 04:29 419K
20260428T00Z_MSC_GDPS_RelativeHumidity_IsbL-0100_LatLon0.15_PT138H.grib2 2026-04-28 04:29 497K
20260428T00Z_MSC_GDPS_RelativeHumidity_IsbL-0150_LatLon0.15_PT138H.grib2 2026-04-28 04:29 655K
20260428T00Z_MSC_GDPS_RelativeHumidity_IsbL-0175_LatLon0.15_PT138H.grib2 2026-04-28 04:29 595K
20260428T00Z_MSC_GDPS_RelativeHumidity_IsbL-0200_LatLon0.15_PT138H.grib2 2026-04-28 04:29 714K
20260428T00Z_MSC_GDPS_RelativeHumidity_IsbL-0225_LatLon0.15_PT138H.grib2 2026-04-28 04:29 793K
20260428T00Z_MSC_GDPS_RelativeHumidity_IsbL-0250_LatLon0.15_PT138H.grib2 2026-04-28 04:29 867K
20260428T00Z_MSC_GDPS_RelativeHumidity_IsbL-0275_LatLon0.15_PT138H.grib2 2026-04-28 04:29 886K
20260428T00Z_MSC_GDPS_RelativeHumidity_IsbL-0300_LatLon0.15_PT138H.grib2 2026-04-28 04:29 926K
20260428T00Z_MSC_GDPS_RelativeHumidity_IsbL-0350_LatLon0.15_PT138H.grib2 2026-04-28 04:29 951K
20260428T00Z_MSC_GDPS_RelativeHumidity_IsbL-0400_LatLon0.15_PT138H.grib2 2026-04-28 04:29 1.0M
20260428T00Z_MSC_GDPS_RelativeHumidity_IsbL-0450_LatLon0.15_PT138H.grib2 2026-04-28 04:29 1.0M
20260428T00Z_MSC_GDPS_RelativeHumidity_IsbL-0500_LatLon0.15_PT138H.grib2 2026-04-28 04:29 1.0M
20260428T00Z_MSC_GDPS_RelativeHumidity_IsbL-0550_LatLon0.15_PT138H.grib2 2026-04-28 04:29 1.0M
20260428T00Z_MSC_GDPS_RelativeHumidity_IsbL-0600_LatLon0.15_PT138H.grib2 2026-04-28 04:29 1.0M
20260428T00Z_MSC_GDPS_RelativeHumidity_IsbL-0650_LatLon0.15_PT138H.grib2 2026-04-28 04:29 1.1M
20260428T00Z_MSC_GDPS_RelativeHumidity_IsbL-0700_LatLon0.15_PT138H.grib2 2026-04-28 04:29 1.1M
20260428T00Z_MSC_GDPS_RelativeHumidity_IsbL-0750_LatLon0.15_PT138H.grib2 2026-04-28 04:29 1.2M
20260428T00Z_MSC_GDPS_RelativeHumidity_IsbL-0800_LatLon0.15_PT138H.grib2 2026-04-28 04:29 1.3M
20260428T00Z_MSC_GDPS_RelativeHumidity_IsbL-0850_LatLon0.15_PT138H.grib2 2026-04-28 04:29 1.3M
20260428T00Z_MSC_GDPS_RelativeHumidity_IsbL-0875_LatLon0.15_PT138H.grib2 2026-04-28 04:29 1.3M
20260428T00Z_MSC_GDPS_RelativeHumidity_IsbL-0900_LatLon0.15_PT138H.grib2 2026-04-28 04:29 1.2M
20260428T00Z_MSC_GDPS_RelativeHumidity_IsbL-0925_LatLon0.15_PT138H.grib2 2026-04-28 04:29 1.2M
20260428T00Z_MSC_GDPS_RelativeHumidity_IsbL-0950_LatLon0.15_PT138H.grib2 2026-04-28 04:29 1.2M
20260428T00Z_MSC_GDPS_RelativeHumidity_IsbL-0970_LatLon0.15_PT138H.grib2 2026-04-28 04:29 1.2M
20260428T00Z_MSC_GDPS_RelativeHumidity_IsbL-0985_LatLon0.15_PT138H.grib2 2026-04-28 04:29 1.2M
20260428T00Z_MSC_GDPS_RelativeHumidity_IsbL-1000_LatLon0.15_PT138H.grib2 2026-04-28 04:29 1.1M
20260428T00Z_MSC_GDPS_RelativeHumidity_IsbL-1015_LatLon0.15_PT138H.grib2 2026-04-28 04:29 1.1M
20260428T00Z_MSC_GDPS_RelativeVorticity_IsbL-0200_LatLon0.15_PT138H.grib2 2026-04-28 04:29 1.5M
20260428T00Z_MSC_GDPS_RelativeVorticity_IsbL-0250_LatLon0.15_PT138H.grib2 2026-04-28 04:29 1.3M
20260428T00Z_MSC_GDPS_RelativeVorticity_IsbL-0500_LatLon0.15_PT138H.grib2 2026-04-28 04:29 1.5M
20260428T00Z_MSC_GDPS_RelativeVorticity_IsbL-0700_LatLon0.15_PT138H.grib2 2026-04-28 04:29 1.3M
20260428T00Z_MSC_GDPS_RelativeVorticity_IsbL-0850_LatLon0.15_PT138H.grib2 2026-04-28 04:29 1.6M
20260428T00Z_MSC_GDPS_Runoff-Accum_Sfc_LatLon0.15_PT138H.grib2 2026-04-28 04:29 110K
20260428T00Z_MSC_GDPS_SensibleHeatNetFlux_Sfc_LatLon0.15_PT138H.grib2 2026-04-28 04:29 627K
20260428T00Z_MSC_GDPS_ShowalterIndex_IsbL-0500_LatLon0.15_PT138H.grib2 2026-04-28 04:29 6.2M
20260428T00Z_MSC_GDPS_Snow-Accum12h_Sfc_LatLon0.15_PT138H.grib2 2026-04-28 04:29 1.5M
20260428T00Z_MSC_GDPS_Snow-Accum1h_Sfc_LatLon0.15_PT138H.grib2 2026-04-28 04:29 1.1M
20260428T00Z_MSC_GDPS_Snow-Accum24h_Sfc_LatLon0.15_PT138H.grib2 2026-04-28 04:29 1.6M
20260428T00Z_MSC_GDPS_Snow-Accum3h_Sfc_LatLon0.15_PT138H.grib2 2026-04-28 04:29 1.1M
20260428T00Z_MSC_GDPS_Snow-Accum6h_Sfc_LatLon0.15_PT138H.grib2 2026-04-28 04:29 1.5M
20260428T00Z_MSC_GDPS_Snow-Accum_Sfc_LatLon0.15_PT138H.grib2 2026-04-28 04:29 2.2M
20260428T00Z_MSC_GDPS_SnowDensity_Sfc_LatLon0.15_PT138H.grib2 2026-04-28 04:29 270K
20260428T00Z_MSC_GDPS_SnowDepth_Sfc_LatLon0.15_PT138H.grib2 2026-04-28 04:29 1.7M
20260428T00Z_MSC_GDPS_SoilTemp_DBS-0to10cm_LatLon0.15_PT138H.grib2 2026-04-28 04:29 513K
20260428T00Z_MSC_GDPS_SoilTemp_Sfc_LatLon0.15_PT138H.grib2 2026-04-28 04:29 580K
20260428T00Z_MSC_GDPS_SoilVolumetricIceContent_Sfc_LatLon0.15_PT138H.grib2 2026-04-28 04:29 199K
20260428T00Z_MSC_GDPS_SoilVolumetricWaterContent_DBS-0to10cm_LatLon0.15_PT138H.grib2 2026-04-28 04:29 588K
20260428T00Z_MSC_GDPS_SoilVolumetricWaterContent_DBS-0to1cm_LatLon0.15_PT138H.grib2 2026-04-28 04:29 646K
20260428T00Z_MSC_GDPS_SpecificHumidity_AGL-120m_LatLon0.15_PT138H.grib2 2026-04-28 04:29 1.1M
20260428T00Z_MSC_GDPS_SpecificHumidity_AGL-2m_LatLon0.15_PT138H.grib2 2026-04-28 04:29 1.2M
20260428T00Z_MSC_GDPS_SpecificHumidity_AGL-40m_LatLon0.15_PT138H.grib2 2026-04-28 04:29 1.1M
20260428T00Z_MSC_GDPS_SpecificHumidity_AGL-80m_LatLon0.15_PT138H.grib2 2026-04-28 04:29 1.1M
20260428T00Z_MSC_GDPS_SpecificHumidity_IsbL-0001_LatLon0.15_PT138H.grib2 2026-04-28 04:29 1.2M
20260428T00Z_MSC_GDPS_SpecificHumidity_IsbL-0005_LatLon0.15_PT138H.grib2 2026-04-28 04:29 1.1M
20260428T00Z_MSC_GDPS_SpecificHumidity_IsbL-0010_LatLon0.15_PT138H.grib2 2026-04-28 04:29 1.2M
20260428T00Z_MSC_GDPS_SpecificHumidity_IsbL-0020_LatLon0.15_PT138H.grib2 2026-04-28 04:29 1.3M
20260428T00Z_MSC_GDPS_SpecificHumidity_IsbL-0030_LatLon0.15_PT138H.grib2 2026-04-28 04:29 1.2M
20260428T00Z_MSC_GDPS_SpecificHumidity_IsbL-0050_LatLon0.15_PT138H.grib2 2026-04-28 04:29 1.6M
20260428T00Z_MSC_GDPS_SpecificHumidity_IsbL-0100_LatLon0.15_PT138H.grib2 2026-04-28 04:29 1.3M
20260428T00Z_MSC_GDPS_SpecificHumidity_IsbL-0150_LatLon0.15_PT138H.grib2 2026-04-28 04:29 1.3M
20260428T00Z_MSC_GDPS_SpecificHumidity_IsbL-0175_LatLon0.15_PT138H.grib2 2026-04-28 04:29 1.2M
20260428T00Z_MSC_GDPS_SpecificHumidity_IsbL-0200_LatLon0.15_PT138H.grib2 2026-04-28 04:29 1.3M
20260428T00Z_MSC_GDPS_SpecificHumidity_IsbL-0225_LatLon0.15_PT138H.grib2 2026-04-28 04:29 1.3M
20260428T00Z_MSC_GDPS_SpecificHumidity_IsbL-0250_LatLon0.15_PT138H.grib2 2026-04-28 04:29 1.2M
20260428T00Z_MSC_GDPS_SpecificHumidity_IsbL-0275_LatLon0.15_PT138H.grib2 2026-04-28 04:29 1.3M
20260428T00Z_MSC_GDPS_SpecificHumidity_IsbL-0300_LatLon0.15_PT138H.grib2 2026-04-28 04:29 1.2M
20260428T00Z_MSC_GDPS_SpecificHumidity_IsbL-0350_LatLon0.15_PT138H.grib2 2026-04-28 04:29 1.2M
20260428T00Z_MSC_GDPS_SpecificHumidity_IsbL-0400_LatLon0.15_PT138H.grib2 2026-04-28 04:29 1.5M
20260428T00Z_MSC_GDPS_SpecificHumidity_IsbL-0450_LatLon0.15_PT138H.grib2 2026-04-28 04:29 1.3M
20260428T00Z_MSC_GDPS_SpecificHumidity_IsbL-0500_LatLon0.15_PT138H.grib2 2026-04-28 04:29 1.4M
20260428T00Z_MSC_GDPS_SpecificHumidity_IsbL-0550_LatLon0.15_PT138H.grib2 2026-04-28 04:29 1.6M
20260428T00Z_MSC_GDPS_SpecificHumidity_IsbL-0600_LatLon0.15_PT138H.grib2 2026-04-28 04:29 1.7M
20260428T00Z_MSC_GDPS_SpecificHumidity_IsbL-0650_LatLon0.15_PT138H.grib2 2026-04-28 04:29 1.5M
20260428T00Z_MSC_GDPS_SpecificHumidity_IsbL-0700_LatLon0.15_PT138H.grib2 2026-04-28 04:29 1.6M
20260428T00Z_MSC_GDPS_SpecificHumidity_IsbL-0750_LatLon0.15_PT138H.grib2 2026-04-28 04:29 1.7M
20260428T00Z_MSC_GDPS_SpecificHumidity_IsbL-0800_LatLon0.15_PT138H.grib2 2026-04-28 04:29 1.9M
20260428T00Z_MSC_GDPS_SpecificHumidity_IsbL-0850_LatLon0.15_PT138H.grib2 2026-04-28 04:29 1.9M
20260428T00Z_MSC_GDPS_SpecificHumidity_IsbL-0875_LatLon0.15_PT138H.grib2 2026-04-28 04:29 1.9M
20260428T00Z_MSC_GDPS_SpecificHumidity_IsbL-0900_LatLon0.15_PT138H.grib2 2026-04-28 04:29 1.9M
20260428T00Z_MSC_GDPS_SpecificHumidity_IsbL-0925_LatLon0.15_PT138H.grib2 2026-04-28 04:29 1.6M
20260428T00Z_MSC_GDPS_SpecificHumidity_IsbL-0950_LatLon0.15_PT138H.grib2 2026-04-28 04:29 1.6M
20260428T00Z_MSC_GDPS_SpecificHumidity_IsbL-0970_LatLon0.15_PT138H.grib2 2026-04-28 04:29 1.5M
20260428T00Z_MSC_GDPS_SpecificHumidity_IsbL-0985_LatLon0.15_PT138H.grib2 2026-04-28 04:29 1.5M
20260428T00Z_MSC_GDPS_SpecificHumidity_IsbL-1000_LatLon0.15_PT138H.grib2 2026-04-28 04:29 1.5M
20260428T00Z_MSC_GDPS_SpecificHumidity_IsbL-1015_LatLon0.15_PT138H.grib2 2026-04-28 04:29 1.5M
20260428T00Z_MSC_GDPS_SpecificHumidity_Sfc_LatLon0.15_PT138H.grib2 2026-04-28 04:29 668K
20260428T00Z_MSC_GDPS_Thickness_IsbL-0850to0700_LatLon0.15_PT138H.grib2 2026-04-28 04:29 469K
20260428T00Z_MSC_GDPS_Thickness_IsbL-1000to0500_LatLon0.15_PT138H.grib2 2026-04-28 04:29 374K
20260428T00Z_MSC_GDPS_Thickness_IsbL-1000to0850_LatLon0.15_PT138H.grib2 2026-04-28 04:29 493K
20260428T00Z_MSC_GDPS_TotalCloudCover_Sfc_LatLon0.15_PT138H.grib2 2026-04-28 04:29 826K
20260428T00Z_MSC_GDPS_TotalTotalsIndex_Sfc_LatLon0.15_PT138H.grib2 2026-04-28 04:29 6.2M
20260428T00Z_MSC_GDPS_UVIndex-ClearSky-Max24h_Sfc_LatLon0.15_PT138H.grib2 2026-04-28 04:54 2.2M
20260428T00Z_MSC_GDPS_UVIndex-ClearSky_Sfc_LatLon0.15_PT138H.grib2 2026-04-28 04:54 1.0M
20260428T00Z_MSC_GDPS_UVIndex-Max24h_Sfc_LatLon0.15_PT138H.grib2 2026-04-28 04:54 3.2M
20260428T00Z_MSC_GDPS_UVIndex_Sfc_LatLon0.15_PT138H.grib2 2026-04-28 04:54 1.5M
20260428T00Z_MSC_GDPS_UpwardLongwaveRadiationFlux_NTAtm_LatLon0.15_PT138H.grib2 2026-04-28 04:29 842K
20260428T00Z_MSC_GDPS_VerticalVelocity_IsbL-0200_LatLon0.15_PT138H.grib2 2026-04-28 04:29 1.2M
20260428T00Z_MSC_GDPS_VerticalVelocity_IsbL-0250_LatLon0.15_PT138H.grib2 2026-04-28 04:29 1.1M
20260428T00Z_MSC_GDPS_VerticalVelocity_IsbL-0500_LatLon0.15_PT138H.grib2 2026-04-28 04:29 1.0M
20260428T00Z_MSC_GDPS_VerticalVelocity_IsbL-0600_LatLon0.15_PT138H.grib2 2026-04-28 04:29 1.1M
20260428T00Z_MSC_GDPS_VerticalVelocity_IsbL-0700_LatLon0.15_PT138H.grib2 2026-04-28 04:29 1.4M
20260428T00Z_MSC_GDPS_VerticalVelocity_IsbL-0850_LatLon0.15_PT138H.grib2 2026-04-28 04:29 1.3M
20260428T00Z_MSC_GDPS_WindChill_Sfc_LatLon0.15_PT138H.grib2 2026-04-28 04:29 5.3M
20260428T00Z_MSC_GDPS_WindDir_AGL-10m_LatLon0.15_PT138H.grib2 2026-04-28 04:29 1.3M
20260428T00Z_MSC_GDPS_WindDir_AGL-120m_LatLon0.15_PT138H.grib2 2026-04-28 04:29 1.4M
20260428T00Z_MSC_GDPS_WindDir_AGL-40m_LatLon0.15_PT138H.grib2 2026-04-28 04:29 1.4M
20260428T00Z_MSC_GDPS_WindDir_AGL-80m_LatLon0.15_PT138H.grib2 2026-04-28 04:29 1.4M
20260428T00Z_MSC_GDPS_WindDir_IsbL-0001_LatLon0.15_PT138H.grib2 2026-04-28 04:29 688K
20260428T00Z_MSC_GDPS_WindDir_IsbL-0005_LatLon0.15_PT138H.grib2 2026-04-28 04:29 811K
20260428T00Z_MSC_GDPS_WindDir_IsbL-0010_LatLon0.15_PT138H.grib2 2026-04-28 04:29 837K
20260428T00Z_MSC_GDPS_WindDir_IsbL-0020_LatLon0.15_PT138H.grib2 2026-04-28 04:29 946K
20260428T00Z_MSC_GDPS_WindDir_IsbL-0030_LatLon0.15_PT138H.grib2 2026-04-28 04:29 934K
20260428T00Z_MSC_GDPS_WindDir_IsbL-0050_LatLon0.15_PT138H.grib2 2026-04-28 04:29 958K
20260428T00Z_MSC_GDPS_WindDir_IsbL-0100_LatLon0.15_PT138H.grib2 2026-04-28 04:29 1.0M
20260428T00Z_MSC_GDPS_WindDir_IsbL-0150_LatLon0.15_PT138H.grib2 2026-04-28 04:29 1.0M
20260428T00Z_MSC_GDPS_WindDir_IsbL-0175_LatLon0.15_PT138H.grib2 2026-04-28 04:29 1.0M
20260428T00Z_MSC_GDPS_WindDir_IsbL-0200_LatLon0.15_PT138H.grib2 2026-04-28 04:29 1.1M
20260428T00Z_MSC_GDPS_WindDir_IsbL-0225_LatLon0.15_PT138H.grib2 2026-04-28 04:29 1.1M
20260428T00Z_MSC_GDPS_WindDir_IsbL-0250_LatLon0.15_PT138H.grib2 2026-04-28 04:29 1.1M
20260428T00Z_MSC_GDPS_WindDir_IsbL-0275_LatLon0.15_PT138H.grib2 2026-04-28 04:29 1.2M
20260428T00Z_MSC_GDPS_WindDir_IsbL-0300_LatLon0.15_PT138H.grib2 2026-04-28 04:29 1.2M
20260428T00Z_MSC_GDPS_WindDir_IsbL-0350_LatLon0.15_PT138H.grib2 2026-04-28 04:29 1.2M
20260428T00Z_MSC_GDPS_WindDir_IsbL-0400_LatLon0.15_PT138H.grib2 2026-04-28 04:29 1.3M
20260428T00Z_MSC_GDPS_WindDir_IsbL-0450_LatLon0.15_PT138H.grib2 2026-04-28 04:29 1.3M
20260428T00Z_MSC_GDPS_WindDir_IsbL-0500_LatLon0.15_PT138H.grib2 2026-04-28 04:29 1.3M
20260428T00Z_MSC_GDPS_WindDir_IsbL-0550_LatLon0.15_PT138H.grib2 2026-04-28 04:29 1.4M
20260428T00Z_MSC_GDPS_WindDir_IsbL-0600_LatLon0.15_PT138H.grib2 2026-04-28 04:29 1.4M
20260428T00Z_MSC_GDPS_WindDir_IsbL-0650_LatLon0.15_PT138H.grib2 2026-04-28 04:29 1.5M
20260428T00Z_MSC_GDPS_WindDir_IsbL-0700_LatLon0.15_PT138H.grib2 2026-04-28 04:29 1.6M
20260428T00Z_MSC_GDPS_WindDir_IsbL-0750_LatLon0.15_PT138H.grib2 2026-04-28 04:29 1.7M
20260428T00Z_MSC_GDPS_WindDir_IsbL-0800_LatLon0.15_PT138H.grib2 2026-04-28 04:29 1.8M
20260428T00Z_MSC_GDPS_WindDir_IsbL-0850_LatLon0.15_PT138H.grib2 2026-04-28 04:29 1.9M
20260428T00Z_MSC_GDPS_WindDir_IsbL-0875_LatLon0.15_PT138H.grib2 2026-04-28 04:29 2.0M
20260428T00Z_MSC_GDPS_WindDir_IsbL-0900_LatLon0.15_PT138H.grib2 2026-04-28 04:29 2.0M
20260428T00Z_MSC_GDPS_WindDir_IsbL-0925_LatLon0.15_PT138H.grib2 2026-04-28 04:29 2.0M
20260428T00Z_MSC_GDPS_WindDir_IsbL-0950_LatLon0.15_PT138H.grib2 2026-04-28 04:29 2.0M
20260428T00Z_MSC_GDPS_WindDir_IsbL-0970_LatLon0.15_PT138H.grib2 2026-04-28 04:29 2.0M
20260428T00Z_MSC_GDPS_WindDir_IsbL-0985_LatLon0.15_PT138H.grib2 2026-04-28 04:29 2.0M
20260428T00Z_MSC_GDPS_WindDir_IsbL-1000_LatLon0.15_PT138H.grib2 2026-04-28 04:29 2.1M
20260428T00Z_MSC_GDPS_WindDir_IsbL-1015_LatLon0.15_PT138H.grib2 2026-04-28 04:29 2.0M
20260428T00Z_MSC_GDPS_WindGust-Max_AGL-10m_LatLon0.15_PT138H.grib2 2026-04-28 04:29 2.2M
20260428T00Z_MSC_GDPS_WindGust-Min_AGL-10m_LatLon0.15_PT138H.grib2 2026-04-28 04:29 2.2M
20260428T00Z_MSC_GDPS_WindGust_AGL-10m_LatLon0.15_PT138H.grib2 2026-04-28 04:29 2.2M
20260428T00Z_MSC_GDPS_WindSpeed_AGL-10m_LatLon0.15_PT138H.grib2 2026-04-28 04:29 1.1M
20260428T00Z_MSC_GDPS_WindSpeed_AGL-120m_LatLon0.15_PT138H.grib2 2026-04-28 04:29 1.2M
20260428T00Z_MSC_GDPS_WindSpeed_AGL-40m_LatLon0.15_PT138H.grib2 2026-04-28 04:29 1.2M
20260428T00Z_MSC_GDPS_WindSpeed_AGL-80m_LatLon0.15_PT138H.grib2 2026-04-28 04:29 1.2M
20260428T00Z_MSC_GDPS_WindSpeed_IsbL-0001_LatLon0.15_PT138H.grib2 2026-04-28 04:29 643K
20260428T00Z_MSC_GDPS_WindSpeed_IsbL-0005_LatLon0.15_PT138H.grib2 2026-04-28 04:29 607K
20260428T00Z_MSC_GDPS_WindSpeed_IsbL-0010_LatLon0.15_PT138H.grib2 2026-04-28 04:29 621K
20260428T00Z_MSC_GDPS_WindSpeed_IsbL-0020_LatLon0.15_PT138H.grib2 2026-04-28 04:29 662K
20260428T00Z_MSC_GDPS_WindSpeed_IsbL-0030_LatLon0.15_PT138H.grib2 2026-04-28 04:29 860K
20260428T00Z_MSC_GDPS_WindSpeed_IsbL-0050_LatLon0.15_PT138H.grib2 2026-04-28 04:29 902K
20260428T00Z_MSC_GDPS_WindSpeed_IsbL-0100_LatLon0.15_PT138H.grib2 2026-04-28 04:29 1.1M
20260428T00Z_MSC_GDPS_WindSpeed_IsbL-0150_LatLon0.15_PT138H.grib2 2026-04-28 04:29 953K
20260428T00Z_MSC_GDPS_WindSpeed_IsbL-0175_LatLon0.15_PT138H.grib2 2026-04-28 04:29 1.0M
20260428T00Z_MSC_GDPS_WindSpeed_IsbL-0200_LatLon0.15_PT138H.grib2 2026-04-28 04:29 1.1M
20260428T00Z_MSC_GDPS_WindSpeed_IsbL-0225_LatLon0.15_PT138H.grib2 2026-04-28 04:29 1.1M
20260428T00Z_MSC_GDPS_WindSpeed_IsbL-0250_LatLon0.15_PT138H.grib2 2026-04-28 04:29 1.1M
20260428T00Z_MSC_GDPS_WindSpeed_IsbL-0275_LatLon0.15_PT138H.grib2 2026-04-28 04:29 1.1M
20260428T00Z_MSC_GDPS_WindSpeed_IsbL-0300_LatLon0.15_PT138H.grib2 2026-04-28 04:29 1.1M
20260428T00Z_MSC_GDPS_WindSpeed_IsbL-0350_LatLon0.15_PT138H.grib2 2026-04-28 04:29 1.1M
20260428T00Z_MSC_GDPS_WindSpeed_IsbL-0400_LatLon0.15_PT138H.grib2 2026-04-28 04:29 1.1M
20260428T00Z_MSC_GDPS_WindSpeed_IsbL-0450_LatLon0.15_PT138H.grib2 2026-04-28 04:29 1.1M
20260428T00Z_MSC_GDPS_WindSpeed_IsbL-0500_LatLon0.15_PT138H.grib2 2026-04-28 04:29 1.1M
20260428T00Z_MSC_GDPS_WindSpeed_IsbL-0550_LatLon0.15_PT138H.grib2 2026-04-28 04:29 1.1M
20260428T00Z_MSC_GDPS_WindSpeed_IsbL-0600_LatLon0.15_PT138H.grib2 2026-04-28 04:29 1.4M
20260428T00Z_MSC_GDPS_WindSpeed_IsbL-0650_LatLon0.15_PT138H.grib2 2026-04-28 04:29 1.4M
20260428T00Z_MSC_GDPS_WindSpeed_IsbL-0700_LatLon0.15_PT138H.grib2 2026-04-28 04:29 1.5M
20260428T00Z_MSC_GDPS_WindSpeed_IsbL-0750_LatLon0.15_PT138H.grib2 2026-04-28 04:29 1.6M
20260428T00Z_MSC_GDPS_WindSpeed_IsbL-0800_LatLon0.15_PT138H.grib2 2026-04-28 04:29 1.6M
20260428T00Z_MSC_GDPS_WindSpeed_IsbL-0850_LatLon0.15_PT138H.grib2 2026-04-28 04:29 1.8M
20260428T00Z_MSC_GDPS_WindSpeed_IsbL-0875_LatLon0.15_PT138H.grib2 2026-04-28 04:29 1.8M
20260428T00Z_MSC_GDPS_WindSpeed_IsbL-0900_LatLon0.15_PT138H.grib2 2026-04-28 04:29 1.8M
20260428T00Z_MSC_GDPS_WindSpeed_IsbL-0925_LatLon0.15_PT138H.grib2 2026-04-28 04:29 1.8M
20260428T00Z_MSC_GDPS_WindSpeed_IsbL-0950_LatLon0.15_PT138H.grib2 2026-04-28 04:29 1.9M
20260428T00Z_MSC_GDPS_WindSpeed_IsbL-0970_LatLon0.15_PT138H.grib2 2026-04-28 04:29 1.9M
20260428T00Z_MSC_GDPS_WindSpeed_IsbL-0985_LatLon0.15_PT138H.grib2 2026-04-28 04:29 1.9M
20260428T00Z_MSC_GDPS_WindSpeed_IsbL-1000_LatLon0.15_PT138H.grib2 2026-04-28 04:29 1.8M
20260428T00Z_MSC_GDPS_WindSpeed_IsbL-1015_LatLon0.15_PT138H.grib2 2026-04-28 04:29 1.8M
20260428T00Z_MSC_GDPS_WindU_AGL-10m_LatLon0.15_PT138H.grib2 2026-04-28 04:29 1.3M
20260428T00Z_MSC_GDPS_WindU_AGL-120m_LatLon0.15_PT138H.grib2 2026-04-28 04:29 1.0M
20260428T00Z_MSC_GDPS_WindU_AGL-40m_LatLon0.15_PT138H.grib2 2026-04-28 04:29 1.0M
20260428T00Z_MSC_GDPS_WindU_AGL-80m_LatLon0.15_PT138H.grib2 2026-04-28 04:29 1.0M
20260428T00Z_MSC_GDPS_WindU_IsbL-0001_LatLon0.15_PT138H.grib2 2026-04-28 04:29 497K
20260428T00Z_MSC_GDPS_WindU_IsbL-0005_LatLon0.15_PT138H.grib2 2026-04-28 04:29 685K
20260428T00Z_MSC_GDPS_WindU_IsbL-0010_LatLon0.15_PT138H.grib2 2026-04-28 04:29 697K
20260428T00Z_MSC_GDPS_WindU_IsbL-0020_LatLon0.15_PT138H.grib2 2026-04-28 04:29 729K
20260428T00Z_MSC_GDPS_WindU_IsbL-0030_LatLon0.15_PT138H.grib2 2026-04-28 04:29 734K
20260428T00Z_MSC_GDPS_WindU_IsbL-0050_LatLon0.15_PT138H.grib2 2026-04-28 04:29 761K
20260428T00Z_MSC_GDPS_WindU_IsbL-0100_LatLon0.15_PT138H.grib2 2026-04-28 04:29 922K
20260428T00Z_MSC_GDPS_WindU_IsbL-0150_LatLon0.15_PT138H.grib2 2026-04-28 04:29 1.0M
20260428T00Z_MSC_GDPS_WindU_IsbL-0175_LatLon0.15_PT138H.grib2 2026-04-28 04:29 1.0M
20260428T00Z_MSC_GDPS_WindU_IsbL-0200_LatLon0.15_PT138H.grib2 2026-04-28 04:29 842K
20260428T00Z_MSC_GDPS_WindU_IsbL-0225_LatLon0.15_PT138H.grib2 2026-04-28 04:29 854K
20260428T00Z_MSC_GDPS_WindU_IsbL-0250_LatLon0.15_PT138H.grib2 2026-04-28 04:29 859K
20260428T00Z_MSC_GDPS_WindU_IsbL-0275_LatLon0.15_PT138H.grib2 2026-04-28 04:29 888K
20260428T00Z_MSC_GDPS_WindU_IsbL-0300_LatLon0.15_PT138H.grib2 2026-04-28 04:29 938K
20260428T00Z_MSC_GDPS_WindU_IsbL-0350_LatLon0.15_PT138H.grib2 2026-04-28 04:29 894K
20260428T00Z_MSC_GDPS_WindU_IsbL-0400_LatLon0.15_PT138H.grib2 2026-04-28 04:29 895K
20260428T00Z_MSC_GDPS_WindU_IsbL-0450_LatLon0.15_PT138H.grib2 2026-04-28 04:29 1.1M
20260428T00Z_MSC_GDPS_WindU_IsbL-0500_LatLon0.15_PT138H.grib2 2026-04-28 04:29 1.1M
20260428T00Z_MSC_GDPS_WindU_IsbL-0550_LatLon0.15_PT138H.grib2 2026-04-28 04:29 1.1M
20260428T00Z_MSC_GDPS_WindU_IsbL-0600_LatLon0.15_PT138H.grib2 2026-04-28 04:29 1.2M
20260428T00Z_MSC_GDPS_WindU_IsbL-0650_LatLon0.15_PT138H.grib2 2026-04-28 04:29 1.2M
20260428T00Z_MSC_GDPS_WindU_IsbL-0700_LatLon0.15_PT138H.grib2 2026-04-28 04:29 1.2M
20260428T00Z_MSC_GDPS_WindU_IsbL-0750_LatLon0.15_PT138H.grib2 2026-04-28 04:29 1.3M
20260428T00Z_MSC_GDPS_WindU_IsbL-0800_LatLon0.15_PT138H.grib2 2026-04-28 04:29 1.4M
20260428T00Z_MSC_GDPS_WindU_IsbL-0850_LatLon0.15_PT138H.grib2 2026-04-28 04:29 1.4M
20260428T00Z_MSC_GDPS_WindU_IsbL-0875_LatLon0.15_PT138H.grib2 2026-04-28 04:29 1.5M
20260428T00Z_MSC_GDPS_WindU_IsbL-0900_LatLon0.15_PT138H.grib2 2026-04-28 04:29 1.5M
20260428T00Z_MSC_GDPS_WindU_IsbL-0925_LatLon0.15_PT138H.grib2 2026-04-28 04:29 1.5M
20260428T00Z_MSC_GDPS_WindU_IsbL-0950_LatLon0.15_PT138H.grib2 2026-04-28 04:29 1.5M
20260428T00Z_MSC_GDPS_WindU_IsbL-0970_LatLon0.15_PT138H.grib2 2026-04-28 04:29 1.4M
20260428T00Z_MSC_GDPS_WindU_IsbL-0985_LatLon0.15_PT138H.grib2 2026-04-28 04:29 1.4M
20260428T00Z_MSC_GDPS_WindU_IsbL-1000_LatLon0.15_PT138H.grib2 2026-04-28 04:29 1.4M
20260428T00Z_MSC_GDPS_WindU_IsbL-1015_LatLon0.15_PT138H.grib2 2026-04-28 04:29 1.4M
20260428T00Z_MSC_GDPS_WindV_AGL-10m_LatLon0.15_PT138H.grib2 2026-04-28 04:29 1.3M
20260428T00Z_MSC_GDPS_WindV_AGL-120m_LatLon0.15_PT138H.grib2 2026-04-28 04:29 1.0M
20260428T00Z_MSC_GDPS_WindV_AGL-40m_LatLon0.15_PT138H.grib2 2026-04-28 04:29 969K
20260428T00Z_MSC_GDPS_WindV_AGL-80m_LatLon0.15_PT138H.grib2 2026-04-28 04:29 1.0M
20260428T00Z_MSC_GDPS_WindV_IsbL-0001_LatLon0.15_PT138H.grib2 2026-04-28 04:29 775K
20260428T00Z_MSC_GDPS_WindV_IsbL-0005_LatLon0.15_PT138H.grib2 2026-04-28 04:29 781K
20260428T00Z_MSC_GDPS_WindV_IsbL-0010_LatLon0.15_PT138H.grib2 2026-04-28 04:29 879K
20260428T00Z_MSC_GDPS_WindV_IsbL-0020_LatLon0.15_PT138H.grib2 2026-04-28 04:29 932K
20260428T00Z_MSC_GDPS_WindV_IsbL-0030_LatLon0.15_PT138H.grib2 2026-04-28 04:29 934K
20260428T00Z_MSC_GDPS_WindV_IsbL-0050_LatLon0.15_PT138H.grib2 2026-04-28 04:29 1.0M
20260428T00Z_MSC_GDPS_WindV_IsbL-0100_LatLon0.15_PT138H.grib2 2026-04-28 04:29 856K
20260428T00Z_MSC_GDPS_WindV_IsbL-0150_LatLon0.15_PT138H.grib2 2026-04-28 04:29 1.0M
20260428T00Z_MSC_GDPS_WindV_IsbL-0175_LatLon0.15_PT138H.grib2 2026-04-28 04:29 1.0M
20260428T00Z_MSC_GDPS_WindV_IsbL-0200_LatLon0.15_PT138H.grib2 2026-04-28 04:29 841K
20260428T00Z_MSC_GDPS_WindV_IsbL-0225_LatLon0.15_PT138H.grib2 2026-04-28 04:29 850K
20260428T00Z_MSC_GDPS_WindV_IsbL-0250_LatLon0.15_PT138H.grib2 2026-04-28 04:29 851K
20260428T00Z_MSC_GDPS_WindV_IsbL-0275_LatLon0.15_PT138H.grib2 2026-04-28 04:29 878K
20260428T00Z_MSC_GDPS_WindV_IsbL-0300_LatLon0.15_PT138H.grib2 2026-04-28 04:29 869K
20260428T00Z_MSC_GDPS_WindV_IsbL-0350_LatLon0.15_PT138H.grib2 2026-04-28 04:29 881K
20260428T00Z_MSC_GDPS_WindV_IsbL-0400_LatLon0.15_PT138H.grib2 2026-04-28 04:29 882K
20260428T00Z_MSC_GDPS_WindV_IsbL-0450_LatLon0.15_PT138H.grib2 2026-04-28 04:29 1.1M
20260428T00Z_MSC_GDPS_WindV_IsbL-0500_LatLon0.15_PT138H.grib2 2026-04-28 04:29 1.1M
20260428T00Z_MSC_GDPS_WindV_IsbL-0550_LatLon0.15_PT138H.grib2 2026-04-28 04:29 1.1M
20260428T00Z_MSC_GDPS_WindV_IsbL-0600_LatLon0.15_PT138H.grib2 2026-04-28 04:29 1.1M
20260428T00Z_MSC_GDPS_WindV_IsbL-0650_LatLon0.15_PT138H.grib2 2026-04-28 04:29 1.2M
20260428T00Z_MSC_GDPS_WindV_IsbL-0700_LatLon0.15_PT138H.grib2 2026-04-28 04:29 1.2M
20260428T00Z_MSC_GDPS_WindV_IsbL-0750_LatLon0.15_PT138H.grib2 2026-04-28 04:29 1.3M
20260428T00Z_MSC_GDPS_WindV_IsbL-0800_LatLon0.15_PT138H.grib2 2026-04-28 04:29 1.3M
20260428T00Z_MSC_GDPS_WindV_IsbL-0850_LatLon0.15_PT138H.grib2 2026-04-28 04:29 1.4M
20260428T00Z_MSC_GDPS_WindV_IsbL-0875_LatLon0.15_PT138H.grib2 2026-04-28 04:29 1.5M
20260428T00Z_MSC_GDPS_WindV_IsbL-0900_LatLon0.15_PT138H.grib2 2026-04-28 04:29 1.5M
20260428T00Z_MSC_GDPS_WindV_IsbL-0925_LatLon0.15_PT138H.grib2 2026-04-28 04:29 1.5M
20260428T00Z_MSC_GDPS_WindV_IsbL-0950_LatLon0.15_PT138H.grib2 2026-04-28 04:29 1.4M
20260428T00Z_MSC_GDPS_WindV_IsbL-0970_LatLon0.15_PT138H.grib2 2026-04-28 04:29 1.4M
20260428T00Z_MSC_GDPS_WindV_IsbL-0985_LatLon0.15_PT138H.grib2 2026-04-28 04:29 1.4M
20260428T00Z_MSC_GDPS_WindV_IsbL-1000_LatLon0.15_PT138H.grib2 2026-04-28 04:29 1.4M
20260428T00Z_MSC_GDPS_WindV_IsbL-1015_LatLon0.15_PT138H.grib2 2026-04-28 04:29 1.3M